Location: Mahannah Oil Field
(37.4664°N, 96.6003°W)
Time: 14:32:32
(UTC+00:00)

Transit 2A Rocket - Pass Details

Date: 22 January 2021
Orbit: 594 x 909 km, 66.7° (Epoch: 24 February)

Event Time Altitude Azimuth Distance (km) Brightness Sun altitude
Rises 17:16:07 0° 162° (SSE) 3,410 9.6 29.8°
Reaches altitude 10° 17:19:38 10° 141° (SE) 2,423 9.0 30.1°
Maximum altitude 17:22:49 16° 106° (ESE) 2,003 7.8 30.3°
Drops below altitude 10° 17:25:52 10° 71° (ENE) 2,313 7.6 30.5°
Sets 17:29:05 0° 50° (NE) 3,174 8.0 30.8°
